N355AR MDJB-MDJB

Flight info

Callsign N355AR
Flight time 0h 3m
Altitude 4000
Route VFR
Aircraft AS55/L-SDGRY/S

Departure

Time 2026-04-18 14:01
Airport La Isabela International Airport (MDJB)

Arrival

Time 2026-04-18 14:04
Airport La Isabela International Airport (MDJB)
Time Latitude Longitude Altitude Speed Heading
2026-04-18 13:57 18.57898 -69.98248 84 ft 0 kts 96°
2026-04-18 13:59 18.57898 -69.98253 88 ft 5 kts 91°
2026-04-18 13:59 18.57902 -69.98316 89 ft 7 kts 49°
2026-04-18 14:00 18.57889 -69.98341 367 ft 7 kts 313°
2026-04-18 14:00 18.57474 -69.98339 450 ft 132 kts 181°
2026-04-18 14:00 18.56417 -69.98109 445 ft 169 kts 166°
2026-04-18 14:00 18.55282 -69.97785 610 ft 168 kts 165°
2026-04-18 14:01 18.54170 -69.97513 885 ft 164 kts 167°
2026-04-18 14:01 18.53038 -69.97236 996 ft 172 kts 166°
2026-04-18 14:01 18.51893 -69.96906 1042 ft 171 kts 163°
2026-04-18 14:01 18.50758 -69.96568 1127 ft 167 kts 164°
2026-04-18 14:02 18.49625 -69.96220 1154 ft 172 kts 162°
2026-04-18 14:02 18.48495 -69.95867 1145 ft 163 kts 165°
2026-04-18 14:02 18.47388 -69.95623 954 ft 156 kts 169°
2026-04-18 14:02 18.46373 -69.95437 919 ft 148 kts 172°
2026-04-18 14:03 18.45337 -69.95305 738 ft 151 kts 173°
2026-04-18 14:03 18.44308 -69.95335 579 ft 142 kts 189°
2026-04-18 14:03 18.43448 -69.95512 368 ft 95 kts 180°
2026-04-18 14:03 18.43128 -69.95200 390 ft 65 kts 88°
2026-04-18 14:04 18.43267 -69.94822 177 ft 41 kts 56°
2026-04-18 14:04 18.43338 -69.94699 64 ft 1 kts 56°
2026-04-18 14:04 18.43340 -69.94697 61 ft 0 kts 51°
2026-04-18 14:10 18.43303 -69.94556 207 ft 58 kts 108°
2026-04-18 14:10 18.43691 -69.93985 362 ft 130 kts 20°
2026-04-18 14:10 18.44668 -69.94197 513 ft 154 kts 337°
2026-04-18 14:10 18.45616 -69.94675 959 ft 148 kts 333°
2026-04-18 14:11 18.46169 -69.94987 1256 ft 149 kts 331°
2026-04-18 14:11 18.47114 -69.95546 1512 ft 155 kts 330°
2026-04-18 14:11 18.48032 -69.96096 1954 ft 150 kts 330°
2026-04-18 14:11 18.48955 -69.96646 2253 ft 155 kts 330°
2026-04-18 14:12 18.49863 -69.97191 2588 ft 151 kts 330°
2026-04-18 14:12 18.50228 -69.97406 2724 ft 152 kts 330°
2026-04-18 14:12 18.51152 -69.97929 3075 ft 150 kts 333°
2026-04-18 14:12 18.52075 -69.98414 3435 ft 148 kts 333°
2026-04-18 14:13 18.52891 -69.98859 3861 ft 142 kts 332°
2026-04-18 14:13 18.53430 -69.99156 4149 ft 141 kts 332°
2026-04-18 14:13 18.54091 -69.99533 4464 ft 143 kts 330°
2026-04-18 14:13 18.54885 -70.00029 4818 ft 145 kts 328°
2026-04-18 14:14 18.55017 -70.00114 4869 ft 146 kts 328°
2026-04-18 14:14 18.55443 -70.00396 4960 ft 151 kts 327°
2026-04-18 14:14 18.56319 -70.01004 5237 ft 148 kts 327°
2026-04-18 14:14 18.56857 -70.01357 5468 ft 149 kts 327°
2026-04-18 14:15 18.57096 -70.01503 5537 ft 149 kts 330°
2026-04-18 14:15 18.57359 -70.01656 5595 ft 151 kts 331°
2026-04-18 14:15 18.58265 -70.02182 5946 ft 146 kts 331°
2026-04-18 14:15 18.58479 -70.02302 6002 ft 148 kts 332°
2026-04-18 14:16 18.59376 -70.02664 6237 ft 152 kts 344°
2026-04-18 14:16 18.60461 -70.02969 6050 ft 166 kts 345°
2026-04-18 14:16 18.61552 -70.03312 5923 ft 162 kts 342°
2026-04-18 14:16 18.62604 -70.03696 6013 ft 160 kts 340°
2026-04-18 14:17 18.63644 -70.04121 6035 ft 162 kts 338°
2026-04-18 14:17 18.64684 -70.04581 6001 ft 161 kts 336°
2026-04-18 14:17 18.66718 -70.05543 6000 ft 161 kts 335°
2026-04-18 14:18 18.68757 -70.06540 6020 ft 161 kts 335°
2026-04-18 14:18 18.69763 -70.07036 6006 ft 161 kts 335°
2026-04-18 14:19 18.71802 -70.08041 6001 ft 161 kts 335°
2026-04-18 14:19 18.72805 -70.08535 6020 ft 161 kts 335°
2026-04-18 14:19 18.74831 -70.09527 5997 ft 160 kts 335°
2026-04-18 14:20 18.75855 -70.10027 5995 ft 161 kts 335°
2026-04-18 14:20 18.76874 -70.10522 6015 ft 161 kts 335°
2026-04-18 14:20 18.77878 -70.11008 6023 ft 161 kts 335°
2026-04-18 14:20 18.78897 -70.11500 6006 ft 161 kts 335°
2026-04-18 14:21 18.79916 -70.11992 5994 ft 161 kts 336°
2026-04-18 14:21 18.80936 -70.12482 6003 ft 161 kts 336°
2026-04-18 14:21 18.81955 -70.12975 6017 ft 161 kts 336°
2026-04-18 14:22 18.83974 -70.13948 6003 ft 160 kts 336°
2026-04-18 14:22 18.84993 -70.14435 5997 ft 160 kts 336°
2026-04-18 14:22 18.87030 -70.15403 6023 ft 161 kts 336°
2026-04-18 14:23 18.88053 -70.15886 6011 ft 160 kts 336°
2026-04-18 14:23 18.90088 -70.16847 5999 ft 161 kts 336°
2026-04-18 14:23 18.91124 -70.17335 6014 ft 161 kts 336°
2026-04-18 14:24 18.93160 -70.18294 6004 ft 160 kts 336°
2026-04-18 14:24 18.94187 -70.18778 5996 ft 161 kts 336°
2026-04-18 14:24 18.95198 -70.19255 6004 ft 161 kts 336°
2026-04-18 14:25 18.96218 -70.19736 6024 ft 161 kts 336°
2026-04-18 14:25 18.97244 -70.20217 6020 ft 161 kts 336°
2026-04-18 14:25 18.98270 -70.20697 5997 ft 161 kts 336°
2026-04-18 14:25 18.99297 -70.21183 5990 ft 161 kts 337°
2026-04-18 14:26 19.00314 -70.21674 6019 ft 161 kts 336°
2026-04-18 14:26 19.01317 -70.22158 6027 ft 161 kts 337°
2026-04-18 14:26 19.02335 -70.22645 6006 ft 160 kts 337°
2026-04-18 14:26 19.03360 -70.23133 5996 ft 160 kts 337°
2026-04-18 14:27 19.04382 -70.23616 6012 ft 161 kts 338°
2026-04-18 14:27 19.05406 -70.24096 6024 ft 161 kts 338°
2026-04-18 14:27 19.06436 -70.24576 6021 ft 161 kts 338°
2026-04-18 14:27 19.07459 -70.25050 6003 ft 160 kts 338°
2026-04-18 14:28 19.08487 -70.25521 6000 ft 161 kts 338°
2026-04-18 14:28 19.09494 -70.25982 6017 ft 161 kts 338°
2026-04-18 14:28 19.10530 -70.26457 6025 ft 161 kts 338°
2026-04-18 14:28 19.11559 -70.26931 6012 ft 160 kts 338°
2026-04-18 14:29 19.12584 -70.27405 5998 ft 160 kts 338°
2026-04-18 14:29 19.13262 -70.27719 6025 ft 161 kts 338°
2026-04-18 14:29 19.14287 -70.28195 6018 ft 161 kts 338°
2026-04-18 14:29 19.15310 -70.28670 6002 ft 160 kts 338°
2026-04-18 14:30 19.16334 -70.29148 6009 ft 162 kts 339°
2026-04-18 14:30 19.17365 -70.29652 6030 ft 165 kts 338°
2026-04-18 14:30 19.18409 -70.30167 6012 ft 165 kts 338°
2026-04-18 14:30 19.19458 -70.30674 5996 ft 165 kts 339°
2026-04-18 14:31 19.20513 -70.31173 6008 ft 166 kts 339°
2026-04-18 14:31 19.21567 -70.31657 6042 ft 169 kts 339°
2026-04-18 14:31 19.22653 -70.32148 6015 ft 171 kts 340°
2026-04-18 14:31 19.23749 -70.32641 5990 ft 169 kts 340°
2026-04-18 14:32 19.24840 -70.33135 6010 ft 170 kts 340°
2026-04-18 14:32 19.25911 -70.33625 6026 ft 170 kts 339°
2026-04-18 14:32 19.26991 -70.34124 6027 ft 169 kts 339°
2026-04-18 14:32 19.28087 -70.34632 6005 ft 169 kts 339°
2026-04-18 14:33 19.29158 -70.35131 6005 ft 170 kts 339°
2026-04-18 14:33 19.30240 -70.35636 6031 ft 170 kts 339°
2026-04-18 14:33 19.31319 -70.36140 6021 ft 169 kts 339°
2026-04-18 14:33 19.32405 -70.36647 6002 ft 170 kts 339°
2026-04-18 14:34 19.33488 -70.37153 6009 ft 170 kts 339°
2026-04-18 14:34 19.34572 -70.37658 6041 ft 171 kts 339°
2026-04-18 14:34 19.35653 -70.38160 6010 ft 171 kts 339°
2026-04-18 14:34 19.36748 -70.38671 5995 ft 171 kts 339°
2026-04-18 14:35 19.37840 -70.39182 6025 ft 172 kts 339°
2026-04-18 14:35 19.38931 -70.39692 6031 ft 171 kts 339°
2026-04-18 14:35 19.40025 -70.40204 6005 ft 171 kts 339°
2026-04-18 14:35 19.41107 -70.40712 6004 ft 172 kts 339°
2026-04-18 14:36 19.42198 -70.41224 6033 ft 172 kts 339°
2026-04-18 14:36 19.43285 -70.41734 6022 ft 171 kts 339°
2026-04-18 14:36 19.44383 -70.42250 5999 ft 171 kts 339°
2026-04-18 14:36 19.45474 -70.42763 6014 ft 172 kts 339°
2026-04-18 14:37 19.46561 -70.43273 6033 ft 172 kts 339°
2026-04-18 14:37 19.47655 -70.43786 6011 ft 171 kts 339°
2026-04-18 14:37 19.48747 -70.44300 6000 ft 171 kts 339°
2026-04-18 14:37 19.49825 -70.44806 6028 ft 172 kts 339°
2026-04-18 14:38 19.50915 -70.45318 6027 ft 171 kts 339°
2026-04-18 14:38 19.52010 -70.45831 6005 ft 171 kts 339°
2026-04-18 14:38 19.53105 -70.46345 6001 ft 172 kts 339°
2026-04-18 14:38 19.54199 -70.46857 6026 ft 172 kts 339°
2026-04-18 14:39 19.55296 -70.47371 6015 ft 172 kts 339°
2026-04-18 14:39 19.56394 -70.47886 5993 ft 172 kts 339°
2026-04-18 14:39 19.57477 -70.48392 5790 ft 170 kts 339°
2026-04-18 14:39 19.58528 -70.48883 5618 ft 163 kts 339°
2026-04-18 14:40 19.59572 -70.49372 5385 ft 165 kts 339°
2026-04-18 14:40 19.60628 -70.49915 5019 ft 173 kts 333°
2026-04-18 14:40 19.61717 -70.50640 3925 ft 192 kts 325°
2026-04-18 14:40 19.62709 -70.51542 3231 ft 183 kts 315°
2026-04-18 14:41 19.63565 -70.52419 3110 ft 168 kts 318°
2026-04-18 14:41 19.64446 -70.53198 3096 ft 160 kts 327°
2026-04-18 14:41 19.65371 -70.53894 2990 ft 169 kts 328°
2026-04-18 14:41 19.66342 -70.54588 2801 ft 164 kts 328°
2026-04-18 14:42 19.67307 -70.55254 2700 ft 168 kts 329°
2026-04-18 14:42 19.67478 -70.55370 2665 ft 169 kts 329°
2026-04-18 14:42 19.67491 -70.55379 2662 ft 169 kts 329°
2026-04-18 14:43 19.67908 -70.55669 2531 ft 173 kts 328°
2026-04-18 14:43 19.68864 -70.56378 2210 ft 174 kts 326°
2026-04-18 14:43 19.69829 -70.57132 1618 ft 170 kts 327°
2026-04-18 14:43 19.70744 -70.57841 1222 ft 158 kts 327°
2026-04-18 14:44 19.71135 -70.58135 1101 ft 154 kts 326°
2026-04-18 14:46 19.71702 -70.58561 1038 ft 147 kts 326°
2026-04-18 14:46 19.72554 -70.59137 914 ft 140 kts 329°
2026-04-18 14:46 19.73354 -70.59592 786 ft 123 kts 336°
2026-04-18 14:47 19.74068 -70.59829 697 ft 94 kts 349°
2026-04-18 14:47 19.74451 -70.59925 572 ft 83 kts 341°
2026-04-18 14:47 19.74690 -70.60086 567 ft 73 kts 311°
2026-04-18 14:48 19.74737 -70.60159 552 ft 74 kts 301°
2026-04-18 14:48 19.74838 -70.60483 464 ft 77 kts 281°
2026-04-18 14:48 19.74868 -70.60898 387 ft 66 kts 269°
2026-04-18 14:48 19.74754 -70.61214 286 ft 62 kts 220°
2026-04-18 14:49 19.74617 -70.61446 205 ft 40 kts 331°
2026-04-18 14:49 19.74730 -70.61392 95 ft 15 kts 60°
2026-04-18 14:49 19.74756 -70.61325 52 ft 2 kts 71°
2026-04-18 14:50 19.74757 -70.61321 44 ft 2 kts 81°
2026-04-18 14:50 19.74759 -70.61321 43 ft 0 kts 85°
2026-04-18 14:53 19.74760 -70.61321 49 ft 3 kts 88°
2026-04-18 14:53 19.74837 -70.60910 187 ft 126 kts 83°
2026-04-18 14:53 19.74956 -70.59780 385 ft 170 kts 83°
2026-04-18 14:54 19.75202 -70.58553 431 ft 171 kts 75°
2026-04-18 14:54 19.75495 -70.57470 314 ft 123 kts 71°
2026-04-18 14:54 19.75686 -70.56844 286 ft 62 kts 84°
2026-04-18 14:54 19.75570 -70.56632 97 ft 29 kts 153°
2026-04-18 14:55 19.75441 -70.56582 38 ft 12 kts 166°
2026-04-18 14:55 19.75430 -70.56575 23 ft 1 kts 175°
2026-04-18 14:55 19.75429 -70.56576 20 ft 0 kts 182°